Regional Weather Roundup
Issued by NWS

Home | Current Version | Previous Version | Text Only | Print | Product List | Glossary On
Versions: 1 2 3 4 5 6 7 8 9 10 11 12 13 14 15 16 17 18 19 20 21 22 23 24 25 26 27 28 29 30 31 32 33 34 35 36 37 38 39 40 41 42 43 44 45 46 47 48 49 50
000
ASHW40 PHFO 301343
RWRHI

WEATHER ROUNDUP FOR HAWAII
NATIONAL WEATHER SERVICE HONOLULU HI
300 AM HST SAT APR 30 2016

THIS IS AN AUTOMATED REPORT THAT HAS NOT BEEN QUALITY CONTROLLED.

NOTE..."FAIR" INDICATES FEW OR NO CLOUDS BELOW 12,000 FEET WITH NO
SIGNIFICANT WEATHER AND/OR OBSTRUCTIONS TO VISIBILITY.

* - THESE SITES REPORT LIMITED FIELDS

HIZ001>004-301400-
KAUAI-NIIHAU-

CITY           SKY/WX    TMP DP  RH WIND       PRES   REMARKS
LIHUE APT      MOCLDY    77  67  71 E12       30.08F
PORT ALLEN*      N/A     73 N/A N/A NE9         N/A
POIPU*           N/A     75 N/A N/A NE6G12      N/A
PRINCEVILLE*     N/A     72 N/A N/A S3          N/A
KOKOLE POINT*  NOT AVBL
MOLOAA DAIRY*    N/A     73  66  78 E6G12       N/A
WAIMEA HTS*      N/A    N/A N/A N/A CALM        N/A
PUU OPAE*        N/A     64  59  82 CALM        N/A
PUU LUA*       NOT AVBL
MAKAHA RIDGE*    N/A     66  61  82 CALM        N/A
$$

HIZ005>011-301400-
OAHU-

CITY           SKY/WX    TMP DP  RH WIND       PRES   REMARKS
HONOLULU       PTCLDY    75  66  73 NE12      30.05F
KALAELOA       CLEAR     71  64  78 NE3       30.06F
KANEOHE MCB    CLOUDY    74  68  81 VRB7      30.04F
WHEELER FIELD  DRIZZLE   68  64  88 VRB3      30.05F
BELLOWS*         N/A    N/A N/A N/A E16         N/A
KAHUKU*          N/A    N/A N/A N/A VRB8G14     N/A
WHEELER*         N/A    N/A N/A N/A S1          N/A
WAIANAE HARBOR   N/A    N/A N/A N/A NE3G9       N/A
DILLINGHAM*      N/A     64  61  88 MISG        N/A
KAHUKU TRN*      N/A     72  64  78 CALM        N/A
KAWAILOA*        N/A     70  63  78 E7G16       N/A
KII*             N/A     75  68  78 E15         N/A
MAKUA RANGE*     N/A     70  64  83 SE3         N/A
OAHU FOREST NW   N/A     66  64  94 S18G38      N/A
SCHOFIELD BRK*   N/A     79  75  89 MISG        N/A
SCHOFIELD S*   NOT AVBL
WAIANAE VLY*     N/A     68  59  73 N3G21       N/A
KUAOKALA*        N/A     70  63  78 NE5G12      N/A
HONOULIUULI*   NOT AVBL
MOKUOLOE IS*   NOT AVBL
PALEHUA*         N/A     64  63  94 NE9G16      N/A
WAIAWA PHB*    NOT AVBL
$$

HIZ012>013-301400-
MOLOKAI-

CITY           SKY/WX    TMP DP  RH WIND       PRES   REMARKS
MOLOKAI AIRPT  CLEAR     72  63  73 NE6       30.06S
KALAUPAPA      NOT AVBL
MAKAPULAPAI*     N/A     72  68  88 E18G32      N/A
MOLOKAI 1*       N/A     64  59  82 SE3         N/A
PUU ALII*        N/A     58  58 100 NE3G12      N/A
$$

HIZ016-301400-
KAHOOLAWE-

CITY           SKY/WX    TMP DP  RH WIND       PRES   REMARKS
KAHOOLAWE*       N/A     68 N/A N/A E1          N/A
HAKIOAWA*        N/A     70  68  93 MISG      30.47S
HONOKANAIA*      N/A     74  65  74 NE13G28   29.99F
KANELOA*         N/A     72  68  88 E17G32    30.11F
KEALIALALO*    NOT AVBL
LUA MAKIKA*    NOT AVBL
$$

HIZ014>015-301400-
LANAI-

CITY           SKY/WX    TMP DP  RH WIND       PRES   REMARKS
LANAI CITY     FAIR      67  64  90 NE9       30.10F
LANAI 1*       NOT AVBL
$$

HIZ017>028-301400-
MAUI-

CITY           SKY/WX    TMP DP  RH WIND       PRES   REMARKS
KAHULUI        CLOUDY    73  68  84 NE7       30.04F
KAPALUA-W MAUI NOT AVBL
HANA AIRPORT   NOT AVBL
HANA*            N/A     73 N/A N/A E6          N/A
HALEAKALA SUMM   N/A     46  14  27 E16G35      N/A
MAALAEA BAY*     N/A     73 N/A N/A N12G18      N/A
HALEAKALA*     NOT AVBL
KAUPO GAP*       N/A     61  59  94 N10G22      N/A
KULA 1*          N/A     46  43  87 E2          N/A
$$

HIZ023>026-301400-
BIG ISLAND OF HAWAII COAST AND LOWER SLOPES-

CITY           SKY/WX    TMP DP  RH WIND       PRES   REMARKS
KAILUA KONA    PTCLDY    75  66  73 E5        30.02S
HILO           CLOUDY    71  67  87 SW7       30.08S
HONOKAA*         N/A     66 N/A N/A VRB1        N/A
KAWAIHAE MWT*    N/A     77 N/A N/A SE6G12      N/A
KAWAIHAE*        N/A     79 N/A N/A SE6       30.01F
SOUTH POINT*     N/A     68 N/A N/A N14G22      N/A
UPOLU AIRPORT*   N/A    N/A N/A N/A NE16G24     N/A
KAMUELA*       PTSUNNY   61  57  88 NE7       30.13S
HAKALAU*         N/A     50  50  99 S3          N/A
KALOKO-HONOKO*   N/A     72  61  68 CALM      30.01S
PALI 2*          N/A     61  57  88 S10         N/A
KEALAKOMO*       N/A     75  63  64 NE12G18     N/A
KAUPULEHU*       N/A     66  59  77 SE7         N/A
KAPAPALA*        N/A     64  60  87 N3          N/A
LOWER KAHUKU*    N/A     63 -40   1 N3G12       N/A
PUHE CS*         N/A     75  61  60 SE5G12      N/A
PUHO CS*         N/A     70  60  70 E3          N/A
PTA KEAMUKU*     N/A     61  57  88 CALM        N/A
WAIKOLOA*        N/A     66  63  88 SE5G10      N/A
$$

HIZ027>028-301400-
BIG ISLAND OF HAWAII INTERIOR AND SUMMMITS-

CITY           SKY/WX    TMP DP  RH WIND       PRES   REMARKS
BRADSHAW FIELD PTCLDY    45  40  84 SE3       30.32S
MK VISITOR CEN   N/A     52   0  11 NE10        N/A
MAUNA KEA*       N/A     34  -2  21 CALM        N/A
MAUNA LOA*       N/A     41  -6  13 MISG        N/A
MAUNA LOA 1*   NOT AVBL
PTA KIPUKA*      N/A     66  64  94 E6          N/A
PTA RANGE 17*    N/A     54  46  76 E10G21      N/A
PTA WEST*        N/A     55  54  94 E6G14       N/A
NENE CABIN*      N/A     48  48 100 E9G17       N/A
AHUMOA*          N/A     46  46 100 E6          N/A
PTA PORTABLE*  NOT AVBL
PUU MALI*        N/A     48  48 100 S6          N/A
$$

HIC003-301400-
NORTHWEST ISLANDS-

CITY           SKY/WX    TMP DP  RH WIND       PRES   REMARKS
MIDWAY ISLAND  CLOUDY    66  63  88 NE13      30.20F
MIDWAY NOS*      N/A     66 N/A N/A MISG      30.18F
FRENCH FRIGATE NOT AVBL
$$

PHZ110>124-180-301400-
BUOY REPORTS

STATION/POSITION TIME  TEMP    WIND        PRES    WAVE   SWELL
                       AIR SEA DIR/SP/G            HT/PER HT/DIR
                 (UTC) (F)     (DEG/KT/KT) (MB)    (FT/S) (FT/D)
BUOY 51001       1300   77 79   60/ 12/ 16 1018.1F
BUOY 51101       1250   75 76   60/  8/ 10 1019.2F   6/10   5/ 70
BUOY 51100       NOT AVBL
BUOY 51002       NOT AVBL
BUOY 51003       1250   77 78   70/ 10/ 12 1016.7F   6/10   7/ 90
BUOY 51004       1250   79 79   80/ 16/ 21 1016.4F   9/ 9   7/ 90
BARBERS PT BUOY  NOT AVBL
WAIMEA BAY BUOY  1304      78                N/A     4/13   3/330
KAILUA BAY BUOY  1311      78                N/A     7/ 6   2/ 10
LANAI BUOY       1315      79                N/A     3/13   2/200
BARBERS PT 2     1303      79                N/A     4/13   3/200
PAUWELA MAUI     1309      76                N/A     6/ 9   3/320
HILO             1312      77                N/A     8/ 9   2/ 80
KANEOHE BAY BUOY 1306      77                N/A     6/10   2/350
HANALEI KAUAI    NOT AVBL
KAHULUI HARBOR   1300   73 77   50/ 12/ 15 1017.2F
HONOLULU HARBOR  1300   76 78   50/  6/ 11 1018.0F
KILO NALU        NOT AVBL
HILO HARBOR      1300   70 76  230/  9/ 10 1017.9F
MOKUOLOE         1200   76 78  100/  7/ 10 1018.4F
NAWILIWILI       1300   76 80   60/ 10/ 13 1018.1F
WHOTS BUOY       NOT AVBL
BUOY 51028       NOT AVBL
$$

......................KEY........................................
  SKY/WX - SKY CONDITIONS/PRESENT WEATHER
  TMP    - TEMPERATURE IN FAHRENHEIT
  DWPT   - DEWPOINT IN FAHRENHEIT
  RH     - RELATIVE HUMIDITY IN PERCENT
  WIND   - DIRECTION AND SPEED /MPH FOR ISLANDS...KTS FOR BUOYS/
  PRES   - MEAN SEA LEVEL PRESSURE IN INCHES OF HG
  VSB    - VISIBILITY IN MILES
  HX     - HEAT INDEX
  WCI    - WIND CHILL INDEX
  VRB    - VARIABLE WIND DIRECTION
  N/A    - NOT AVAILABLE



USA.gov is the U.S. government's official web portal to all federal, state and local government web resources and services.